TimePST,TemperatureF,Dew PointF,Humidity,Sea Level PressureIn,VisibilityMPH,Wind Direction,Wind SpeedMPH,Gust SpeedMPH,PrecipitationIn,Events,Conditions,WindDirDegrees,DateUTC
12:56 AM,25.0,15.1,66,30.27,6.0,Calm,Calm,-,N/A,,Haze,0,2013-11-24 08:56:00
1:56 AM,25.0,14.0,63,30.26,9.0,Calm,Calm,-,N/A,,Clear,0,2013-11-24 09:56:00
2:56 AM,25.0,12.9,60,30.27,9.0,Calm,Calm,-,N/A,,Clear,0,2013-11-24 10:56:00
3:56 AM,24.1,12.9,62,30.26,9.0,Calm,Calm,-,N/A,,Clear,0,2013-11-24 11:56:00
4:56 AM,23.0,12.9,65,30.29,9.0,Calm,Calm,-,N/A,,Clear,0,2013-11-24 12:56:00
5:56 AM,21.9,12.9,68,30.31,7.0,Calm,Calm,-,N/A,,Clear,0,2013-11-24 13:56:00
6:56 AM,21.9,12.0,66,30.34,5.0,Calm,Calm,-,N/A,,Haze,0,2013-11-24 14:56:00
7:56 AM,25.0,14.0,63,30.34,8.0,Calm,Calm,-,N/A,,Clear,0,2013-11-24 15:56:00
8:56 AM,34.0,18.0,52,30.33,10.0,Calm,Calm,-,N/A,,Clear,0,2013-11-24 16:56:00
9:56 AM,44.1,16.0,32,30.32,10.0,Variable,5.8,-,N/A,,Clear,0,2013-11-24 17:56:00
10:56 AM,48.9,16.0,27,30.31,10.0,WNW,6.9,-,N/A,,Clear,290,2013-11-24 18:56:00
11:56 AM,52.0,15.1,23,30.29,10.0,Variable,4.6,-,N/A,,Clear,0,2013-11-24 19:56:00
12:56 PM,55.9,12.9,18,30.27,10.0,Variable,4.6,-,N/A,,Clear,0,2013-11-24 20:56:00
1:56 PM,57.0,15.1,19,30.26,10.0,Calm,Calm,-,N/A,,Clear,0,2013-11-24 21:56:00
2:56 PM,55.0,17.1,23,30.27,10.0,WNW,6.9,-,N/A,,Clear,290,2013-11-24 22:56:00
3:56 PM,51.1,19.0,28,30.29,10.0,Variable,4.6,-,N/A,,Clear,0,2013-11-24 23:56:00
4:56 PM,45.0,18.0,34,30.32,10.0,Variable,3.5,-,N/A,,Clear,0,2013-11-25 00:56:00
5:56 PM,37.0,21.9,54,30.35,9.0,NE,4.6,-,N/A,,Clear,40,2013-11-25 01:56:00
6:56 PM,33.1,19.9,59,30.37,4.0,Calm,Calm,-,N/A,,Haze,0,2013-11-25 02:56:00
7:56 PM,30.9,19.0,61,30.39,4.0,Calm,Calm,-,N/A,,Haze,0,2013-11-25 03:56:00
8:56 PM,28.9,18.0,64,30.38,5.0,Calm,Calm,-,N/A,,Haze,0,2013-11-25 04:56:00
9:56 PM,27.0,18.0,69,30.36,5.0,Calm,Calm,-,N/A,,Haze,0,2013-11-25 05:56:00
10:56 PM,28.0,17.1,63,30.35,4.0,Calm,Calm,-,N/A,,Haze,0,2013-11-25 06:56:00
11:56 PM,27.0,16.0,63,30.35,6.0,Calm,Calm,-,N/A,,Haze,0,2013-11-25 07:56:00